Weather History for Hayden, CO

Change the Weather History Date:

Wednesday, January 9, 2013

  Actual Average Record
Temperature  
Mean Temperature 20 °F -  
Max Temperature 28 °F 27 °F 48 °F (1981)
Min Temperature 12 °F 5 °F -27 °F (1962)
Degree Days  
Heating Degree Days 45    
Moisture  
Dew Point 13 °F    
Average Humidity 72    
Maximum Humidity 86    
Minimum Humidity 64    
Precipitation  
Precipitation 0.00 in - - ()
Sea Level Pressure  
Sea Level Pressure 30.26 in    
Wind  
Wind Speed 10 mph (SSE)    
Max Wind Speed 18 mph    
Max Gust Speed -    
Visibility 10 miles    
Events      
Averages and records for this station are not official NWS values.
T = Trace of Precipitation, MM = Missing Value Source: NWS Daily Summary

Daily Weather History Graph

Daily Weather History Graph

Search for Another Location

Airport:

Trip Planner

Search our weather history database for the weather conditions in past years. The results will help you decide how hot, cold, wet, or windy it might be!

Date:

Astronomy

Jan. 09, 2013 Rise Set
Actual Time 7:31 AM MST 5:00 PM MST
Civil Twilight 7:01 AM MST 5:31 PM MST
Nautical Twilight 6:27 AM MST 6:04 PM MST
Astronomical Twilight 5:54 AM MST 6:37 PM MST
Moon 5:14 AM MST (1/9) 3:05 PM MST (1/9)
Length of Visible Light 10h 29m
Length of Day
9h 28m
Waning Crescent, 6% of the Moon is Illuminated
Jan 9
Waning Crescent
Jan 11
New
Jan 18
First Quarter
Jan 26
Full
Feb 3
Last Quarter

Hourly Weather History & Observations

Time (MST) Temp. Windchill Dew Point Humidity Pressure Visibility Wind Dir Wind Speed Gust Speed Precip Events Conditions
12:15 AM 26.6 °F 18.2 °F 19.4 °F 74% 30.38 in 10.0 mi South 8.1 mph - N/A   Overcast
12:35 AM 24.8 °F 16.1 °F 19.4 °F 80% 30.38 in 10.0 mi SSE 8.1 mph - N/A   Overcast
12:55 AM 24.8 °F 14.6 °F 17.6 °F 74% 30.38 in 10.0 mi SE 10.4 mph - N/A   Mostly Cloudy
1:15 AM 24.8 °F 14.6 °F 17.6 °F 74% 30.38 in 10.0 mi SSE 10.4 mph - N/A   Clear
1:35 AM 21.2 °F 11.7 °F 15.8 °F 80% 30.38 in 10.0 mi South 8.1 mph - N/A   Clear
1:55 AM 21.2 °F 10.9 °F 14.0 °F 74% 30.38 in 10.0 mi South 9.2 mph - N/A   Clear
2:15 AM 19.4 °F 6.6 °F 10.4 °F 68% 30.39 in 10.0 mi SSE 12.7 mph - N/A   Clear
2:35 AM 17.6 °F 5.7 °F 8.6 °F 68% 30.39 in 10.0 mi SSE 10.4 mph - N/A   Clear
2:55 AM 19.4 °F 8.6 °F 12.2 °F 74% 30.39 in 10.0 mi SSE 9.2 mph - N/A   Clear
3:15 AM 19.4 °F 6.6 °F 15.8 °F 86% 30.37 in 10.0 mi SE 12.7 mph - N/A   Clear
3:35 AM 19.4 °F 7.9 °F 12.2 °F 74% 30.37 in 10.0 mi SE 10.4 mph - N/A   Clear
3:55 AM 19.4 °F 6.0 °F 12.2 °F 74% 30.37 in 10.0 mi SE 13.8 mph - N/A   Clear
4:15 AM 15.8 °F 2.7 °F 8.6 °F 73% 30.37 in 10.0 mi SSE 11.5 mph - N/A   Clear
4:35 AM 17.6 °F 3.7 °F 8.6 °F 68% 30.37 in 10.0 mi SSE 13.8 mph - N/A   Clear
4:55 AM 15.8 °F 2.1 °F 8.6 °F 73% 30.37 in 10.0 mi SSE 12.7 mph - N/A   Clear
5:15 AM 17.6 °F 4.3 °F 10.4 °F 73% 30.37 in 10.0 mi SSE 12.7 mph - N/A   Clear
5:35 AM 15.8 °F 2.1 °F 10.4 °F 79% 30.36 in 10.0 mi SE 12.7 mph - N/A   Clear
5:55 AM 17.6 °F 3.7 °F 12.2 °F 79% 30.35 in 10.0 mi SSE 13.8 mph - N/A   Clear
6:15 AM 15.8 °F 2.7 °F 10.4 °F 79% 30.35 in 10.0 mi SSE 11.5 mph - N/A   Clear
6:35 AM 12.2 °F -1.8 °F 6.8 °F 79% 30.36 in 10.0 mi SE 11.5 mph - N/A   Clear
6:55 AM 15.8 °F 4.2 °F 10.4 °F 79% 30.36 in 1.2 mi SE 9.2 mph - N/A   Clear
7:15 AM 15.8 °F 2.7 °F 10.4 °F 79% 30.36 in 10.0 mi SE 11.5 mph - N/A   Clear
7:35 AM 15.8 °F 1.4 °F 12.2 °F 86% 30.36 in 3.0 mi SE 13.8 mph - N/A   Clear
8:15 AM 15.8 °F 0.3 °F 10.4 °F 79% 30.36 in 1.5 mi SE 16.1 mph - N/A   Clear
8:35 AM 15.8 °F -0.6 °F 10.4 °F 79% 30.36 in 10.0 mi SE 18.4 mph - N/A   Clear
9:15 AM 17.6 °F 2.7 °F 10.4 °F 73% 30.35 in 10.0 mi SSE 16.1 mph - N/A   Clear
9:55 AM 19.4 °F 7.2 °F 12.2 °F 74% 30.34 in 10.0 mi SSE 11.5 mph - N/A   Clear
10:15 AM 21.2 °F 10.1 °F 12.2 °F 68% 30.34 in 10.0 mi South 10.4 mph - N/A   Clear
10:55 AM 23.0 °F 12.4 °F 15.8 °F 74% 30.33 in 10.0 mi SE 10.4 mph - N/A   Clear
11:15 AM 23.0 °F 13.1 °F 14.0 °F 68% 30.32 in 10.0 mi SSE 9.2 mph - N/A   Clear
11:35 AM 24.8 °F 15.3 °F 15.8 °F 69% 30.31 in 10.0 mi SSE 9.2 mph - N/A   Clear
11:55 AM 28.4 °F 21.2 °F 17.6 °F 64% 30.30 in 10.0 mi SSE 6.9 mph - N/A   Clear
12:15 PM 26.6 °F 19.1 °F 17.6 °F 69% 30.29 in 10.0 mi SSE 6.9 mph - N/A   Clear
12:35 PM 21.2 °F 14.9 °F 12.2 °F 68% 30.27 in 10.0 mi SE 4.6 mph - N/A   Clear
12:55 PM 24.8 °F 19.1 °F 14.0 °F 64% 30.26 in 10.0 mi South 4.6 mph - N/A   Clear
1:15 PM 21.2 °F 13.6 °F 14.0 °F 74% 30.25 in 10.0 mi WSW 5.8 mph - N/A   Clear
1:35 PM 21.2 °F 14.9 °F 12.2 °F 68% 30.25 in 10.0 mi WSW 4.6 mph - N/A   Clear
1:55 PM 23.0 °F - 15.8 °F 74% 30.24 in 10.0 mi Calm Calm - N/A   Clear
2:15 PM 26.6 °F - 15.8 °F 64% 30.24 in 10.0 mi Calm Calm - N/A   Clear
2:35 PM 28.4 °F - 17.6 °F 64% 30.24 in 10.0 mi Calm Calm - N/A   Clear
2:55 PM 23.0 °F 18.4 °F 15.8 °F 74% 30.24 in 10.0 mi SW 3.5 mph - N/A   Clear
3:15 PM 23.0 °F - 14.0 °F 68% 30.24 in 10.0 mi Calm Calm - N/A   Clear
3:35 PM 26.6 °F 21.2 °F 15.8 °F 64% 30.23 in 10.0 mi ESE 4.6 mph - N/A   Clear
3:55 PM 24.8 °F 19.1 °F 15.8 °F 69% 30.22 in 10.0 mi ESE 4.6 mph - N/A   Clear
4:15 PM 26.6 °F - 17.6 °F 69% 30.22 in 10.0 mi Calm Calm - N/A   Clear
4:35 PM 24.8 °F 20.5 °F 15.8 °F 69% 30.21 in 10.0 mi South 3.5 mph - N/A   Clear
4:55 PM 26.6 °F 21.2 °F 17.6 °F 69% 30.20 in 10.0 mi East 4.6 mph - N/A   Clear
5:15 PM 21.2 °F 14.9 °F 12.2 °F 68% 30.19 in 10.0 mi SE 4.6 mph - N/A   Clear
5:35 PM 21.2 °F 12.6 °F 15.8 °F 80% 30.19 in 10.0 mi SE 6.9 mph - N/A   Clear
5:55 PM 21.2 °F 13.6 °F 12.2 °F 68% 30.18 in 10.0 mi South 5.8 mph - N/A   Clear
6:15 PM 19.4 °F 10.4 °F 10.4 °F 68% 30.17 in 10.0 mi South 6.9 mph - N/A   Clear
6:55 PM 23.0 °F 13.1 °F 15.8 °F 74% 30.16 in 10.0 mi ESE 9.2 mph - N/A   Clear
7:15 PM 21.2 °F 10.9 °F 14.0 °F 74% 30.14 in 10.0 mi SSE 9.2 mph - N/A   Clear
7:35 PM 19.4 °F 8.6 °F 12.2 °F 74% 30.14 in 10.0 mi South 9.2 mph - N/A   Clear
8:15 PM 21.2 °F 9.5 °F 12.2 °F 68% 30.14 in 10.0 mi SSE 11.5 mph - N/A   Clear
8:35 PM 21.2 °F 8.3 °F 12.2 °F 68% 30.13 in 10.0 mi SSE 13.8 mph - N/A   Clear
8:55 PM 17.6 °F 3.7 °F 8.6 °F 68% 30.12 in 10.0 mi SSE 13.8 mph - N/A   Clear
9:15 PM 19.4 °F 7.2 °F 12.2 °F 74% 30.12 in 10.0 mi SSE 11.5 mph - N/A   Clear
9:35 PM 19.4 °F 5.5 °F 12.2 °F 74% 30.11 in 10.0 mi SE 15.0 mph - N/A   Clear
9:55 PM 21.2 °F 10.1 °F 14.0 °F 74% 30.10 in 10.0 mi SE 10.4 mph - N/A   Clear
10:15 PM 19.4 °F 6.0 °F 10.4 °F 68% 30.10 in 10.0 mi SSE 13.8 mph - N/A   Clear
10:35 PM 17.6 °F 3.2 °F 10.4 °F 73% 30.09 in 10.0 mi SSE 15.0 mph - N/A   Clear
10:55 PM 17.6 °F 5.0 °F 10.4 °F 73% 30.08 in 10.0 mi SSE 11.5 mph - N/A   Clear
11:15 PM 19.4 °F 6.6 °F 10.4 °F 68% 30.07 in 10.0 mi SE 12.7 mph - N/A   Clear
11:35 PM 19.4 °F 5.0 °F 10.4 °F 68% 30.05 in 10.0 mi SE 16.1 mph - N/A   Clear
11:55 PM 19.4 °F 6.0 °F 12.2 °F 74% 30.04 in 10.0 mi SE 13.8 mph - N/A   Clear